Weather History for Charleston, SC

Change the Weather History Date:

Wednesday, January 22, 2014

  Actual Average (KCHS) Record (KCHS)
Temperature  
Mean Temperature 38 °F 48 °F  
Max Temperature 46 °F 59 °F 80 °F (1999)
Min Temperature 30 °F 38 °F 14 °F (1985)
Degree Days  
Heating Degree Days 27 17  
Month to date heating degree days 374  
Since 1 July heating degree days 1112  
Cooling Degree Days 0 0  
Month to date cooling degree days 0  
Year to date cooling degree days 0  
Moisture  
Dew Point 22 °F    
Average Humidity 55    
Maximum Humidity 75    
Minimum Humidity 31    
Precipitation  
Precipitation 0.00 in 0.12 in 1.77 in (1987)
Month to date precipitation 2.63  
Year to date precipitation 2.63  
Sea Level Pressure  
Sea Level Pressure 30.02 in    
Wind  
Wind Speed 9 mph (WNW)    
Max Wind Speed 13 mph    
Max Gust Speed 17 mph    
Visibility 10 miles    
Events      
T = Trace of Precipitation, MM = Missing Value Source: NWS Daily Summary

Daily Weather History Graph

Daily Weather History Graph

Search for Another Location

Airport:

Trip Planner

Search our weather history database for the weather conditions in past years. The results will help you decide how hot, cold, wet, or windy it might be!

Date:

Astronomy

Jan. 22, 2014 Rise Set
Actual Time 7:20 AM EST 5:43 PM EST
Civil Twilight 6:53 AM EST 6:09 PM EST
Nautical Twilight 6:23 AM EST 6:39 PM EST
Astronomical Twilight 5:54 AM EST 7:09 PM EST
Moon 11:50 PM EST (1/22) 10:42 AM EST (1/22)
Length of Visible Light 11h 15m
Length of Day
10h 23m
Waning Gibbous, 65% of the Moon is Illuminated
Jan 22
Waning Gibbous
Jan 24
Last Quarter
Jan 30
New
Feb 6
First Quarter
Feb 14
Full

Hourly Weather History & Observations

Time (EST) Temp. Windchill Dew Point Humidity Pressure Visibility Wind Dir Wind Speed Gust Speed Precip Events Conditions
12:15 AM 42.8 °F 37.0 °F 28.4 °F 57% 29.83 in 10.0 mi West 10.4 mph - 0.00 in   Clear
12:35 AM 42.8 °F 37.0 °F 28.4 °F 57% 29.84 in 10.0 mi West 10.4 mph 17.3 mph 0.00 in   Clear
12:55 AM 42.8 °F 36.2 °F 28.4 °F 57% 29.84 in 10.0 mi WNW 12.7 mph - 0.00 in   Clear
1:15 AM 41.0 °F 34.7 °F 28.4 °F 61% 29.84 in 10.0 mi WNW 10.4 mph - 0.00 in   Clear
1:35 AM 41.0 °F 34.3 °F 28.4 °F 61% 29.84 in 10.0 mi WNW 11.5 mph - 0.00 in   Clear
1:55 AM 39.2 °F 32.5 °F 28.4 °F 65% 29.86 in 10.0 mi WNW 10.4 mph - 0.00 in   Clear
2:15 AM 39.2 °F 31.6 °F 28.4 °F 65% 29.86 in 10.0 mi WNW 12.7 mph 17.3 mph 0.00 in   Clear
2:35 AM 39.2 °F 32.5 °F 28.4 °F 65% 29.87 in 10.0 mi WNW 10.4 mph - 0.00 in   Clear
2:55 AM 37.4 °F 29.8 °F 26.6 °F 65% 29.88 in 10.0 mi WNW 11.5 mph - 0.00 in   Clear
3:15 AM 37.4 °F 30.8 °F 26.6 °F 65% 29.89 in 10.0 mi WNW 9.2 mph - 0.00 in   Clear
3:35 AM 37.4 °F 29.3 °F 26.6 °F 65% 29.90 in 10.0 mi WNW 12.7 mph 16.1 mph 0.00 in   Clear
3:55 AM 37.4 °F 30.3 °F 26.6 °F 65% 29.91 in 10.0 mi WNW 10.4 mph 16.1 mph 0.00 in   Clear
4:15 AM 35.6 °F 27.5 °F 26.6 °F 70% 29.92 in 10.0 mi WNW 11.5 mph 17.3 mph 0.00 in   Clear
4:35 AM 35.6 °F 28.0 °F 26.6 °F 70% 29.92 in 10.0 mi WNW 10.4 mph - 0.00 in   Clear
4:55 AM 35.6 °F 27.5 °F 26.6 °F 70% 29.94 in 10.0 mi WNW 11.5 mph - 0.00 in   Clear
5:15 AM 35.6 °F 28.0 °F 24.8 °F 65% 29.94 in 10.0 mi WNW 10.4 mph - 0.00 in   Clear
5:35 AM 33.8 °F 25.8 °F 24.8 °F 70% 29.95 in 10.0 mi WNW 10.4 mph - 0.00 in   Clear
5:55 AM 33.8 °F 24.8 °F 24.8 °F 70% 29.95 in 10.0 mi NW 12.7 mph 16.1 mph 0.00 in   Clear
6:15 AM 33.8 °F 25.8 °F 24.8 °F 70% 29.96 in 10.0 mi WNW 10.4 mph - 0.00 in   Clear
6:35 AM 32.0 °F 24.2 °F 24.8 °F 75% 29.98 in 10.0 mi WNW 9.2 mph - 0.00 in   Clear
6:55 AM 32.0 °F 24.2 °F 24.8 °F 75% 29.99 in 10.0 mi WNW 9.2 mph - 0.00 in   Clear
7:15 AM 32.0 °F 24.2 °F 24.8 °F 75% 30.00 in 10.0 mi WNW 9.2 mph - 0.00 in   Clear
7:35 AM 32.0 °F 24.2 °F 23.0 °F 69% 30.01 in 10.0 mi WNW 9.2 mph - 0.00 in   Clear
7:55 AM 32.0 °F 24.2 °F 23.0 °F 69% 30.01 in 10.0 mi WNW 9.2 mph - 0.00 in   Clear
8:15 AM 32.0 °F 23.0 °F 23.0 °F 69% 30.01 in 10.0 mi WNW 11.5 mph - 0.00 in   Clear
8:35 AM 33.8 °F 27.0 °F 23.0 °F 65% 30.02 in 10.0 mi WNW 8.1 mph - 0.00 in   Clear
8:55 AM 35.6 °F 28.6 °F 23.0 °F 60% 30.03 in 10.0 mi WNW 9.2 mph - 0.00 in   Clear
9:15 AM 35.6 °F 28.0 °F 23.0 °F 60% 30.04 in 10.0 mi NW 10.4 mph 17.3 mph 0.00 in   Clear
9:35 AM 37.4 °F 29.3 °F 21.2 °F 52% 30.05 in 10.0 mi WNW 12.7 mph 16.1 mph 0.00 in   Clear
9:55 AM 37.4 °F 29.8 °F 21.2 °F 52% 30.05 in 10.0 mi WNW 11.5 mph - 0.00 in   Clear
10:15 AM 37.4 °F 29.8 °F 21.2 °F 52% 30.06 in 10.0 mi WNW 11.5 mph - 0.00 in   Clear
10:35 AM 39.2 °F 32.5 °F 21.2 °F 49% 30.06 in 10.0 mi West 10.4 mph - 0.00 in   Clear
10:55 AM 39.2 °F 32.5 °F 21.2 °F 49% 30.07 in 10.0 mi West 10.4 mph - 0.00 in   Clear
11:15 AM 41.0 °F 34.7 °F 21.2 °F 45% 30.06 in 10.0 mi WNW 10.4 mph - 0.00 in   Clear
11:35 AM 42.8 °F 37.0 °F 19.4 °F 39% 30.06 in 10.0 mi NW 10.4 mph 17.3 mph 0.00 in   Clear
11:55 AM 42.8 °F 37.5 °F 21.2 °F 42% 30.06 in 10.0 mi NW 9.2 mph - 0.00 in   Clear
12:15 PM 42.8 °F 38.0 °F 21.2 °F 42% 30.05 in 10.0 mi NNW 8.1 mph - 0.00 in   Clear
12:35 PM 42.8 °F 38.6 °F 19.4 °F 39% 30.04 in 10.0 mi North 6.9 mph - 0.00 in   Clear
12:55 PM 42.8 °F 37.5 °F 19.4 °F 39% 30.04 in 10.0 mi West 9.2 mph - 0.00 in   Clear
1:15 PM 44.6 °F 38.4 °F 19.4 °F 37% 30.03 in 10.0 mi West 12.7 mph 16.1 mph 0.00 in   Clear
1:35 PM 44.6 °F 39.7 °F 19.4 °F 37% 30.02 in 10.0 mi WNW 9.2 mph - 0.00 in   Clear
1:55 PM 46.4 °F 41.9 °F 19.4 °F 34% 30.01 in 10.0 mi WNW 9.2 mph 16.1 mph 0.00 in   Clear
2:15 PM 44.6 °F 41.4 °F 17.6 °F 34% 30.01 in 10.0 mi West 5.8 mph - 0.00 in   Clear
2:35 PM 44.6 °F 39.7 °F 17.6 °F 34% 30.01 in 10.0 mi West 9.2 mph - 0.00 in   Clear
2:55 PM 46.4 °F 41.1 °F 17.6 °F 32% 30.01 in 10.0 mi NW 11.5 mph 16.1 mph 0.00 in   Clear
3:15 PM 44.6 °F 39.2 °F 17.6 °F 34% 30.02 in 10.0 mi West 10.4 mph - 0.00 in   Clear
3:35 PM 44.6 °F 39.2 °F 17.6 °F 34% 30.02 in 10.0 mi West 10.4 mph - 0.00 in   Clear
3:55 PM 44.6 °F 38.8 °F 17.6 °F 34% 30.02 in 10.0 mi West 11.5 mph - 0.00 in   Clear
4:15 PM 44.6 °F 38.4 °F 17.6 °F 34% 30.03 in 10.0 mi West 12.7 mph 16.1 mph 0.00 in   Clear
4:35 PM 44.6 °F 39.2 °F 15.8 °F 31% 30.04 in 10.0 mi West 10.4 mph - 0.00 in   Clear
4:55 PM 44.6 °F 39.7 °F 17.6 °F 34% 30.04 in 10.0 mi West 9.2 mph - 0.00 in   Clear
5:15 PM 42.8 °F 38.0 °F 15.8 °F 34% 30.05 in 10.0 mi West 8.1 mph - 0.00 in   Clear
5:35 PM 42.8 °F - 17.6 °F 36% 30.06 in 10.0 mi Calm Calm - 0.00 in   Clear
5:55 PM 39.2 °F - 17.6 °F 42% 30.07 in 10.0 mi Calm Calm - 0.00 in   Clear
6:15 PM 39.2 °F - 17.6 °F 42% 30.08 in 10.0 mi Calm Calm - 0.00 in   Clear
6:35 PM 37.4 °F - 19.4 °F 48% 30.09 in 10.0 mi Calm Calm - 0.00 in   Clear
6:55 PM 37.4 °F - 19.4 °F 48% 30.09 in 10.0 mi Calm Calm - 0.00 in   Clear
7:15 PM 35.6 °F - 21.2 °F 56% 30.10 in 10.0 mi Calm Calm - 0.00 in   Clear
7:35 PM 33.8 °F - 21.2 °F 60% 30.10 in 10.0 mi Calm Calm - 0.00 in   Clear
7:55 PM 32.0 °F - 21.2 °F 64% 30.11 in 10.0 mi Calm Calm - 0.00 in   Clear
8:15 PM 33.8 °F - 19.4 °F 56% 30.12 in 10.0 mi Calm Calm - 0.00 in   Clear
8:35 PM 32.0 °F - 21.2 °F 64% 30.13 in 8.0 mi Calm Calm - 0.00 in   Clear
8:55 PM 33.8 °F - 19.4 °F 56% 30.14 in 10.0 mi Calm Calm - 0.00 in   Clear
9:15 PM 32.0 °F - 19.4 °F 60% 30.14 in 10.0 mi Calm Calm - 0.00 in   Clear
9:35 PM 32.0 °F - 19.4 °F 60% 30.15 in 10.0 mi Calm Calm - 0.00 in   Clear
9:55 PM 32.0 °F - 19.4 °F 60% 30.15 in 10.0 mi Calm Calm - 0.00 in   Clear
10:15 PM 32.0 °F - 21.2 °F 64% 30.17 in 10.0 mi Calm Calm - 0.00 in   Clear
10:35 PM 30.2 °F - 21.2 °F 69% 30.17 in 10.0 mi Calm Calm - 0.00 in   Clear
10:55 PM 32.0 °F - 21.2 °F 64% 30.17 in 10.0 mi Calm Calm - 0.00 in   Clear
11:15 PM 30.2 °F - 21.2 °F 69% 30.17 in 10.0 mi Calm Calm - 0.00 in   Clear
11:35 PM 30.2 °F - 21.2 °F 69% 30.17 in 10.0 mi Calm Calm - 0.00 in   Clear
11:55 PM 30.2 °F - 21.2 °F 69% 30.17 in 10.0 mi Calm Calm - 0.00 in   Clear